Year,Month,Day,Hour,Minute,Value (Times are PST for temperature in C)
2013,11,17,00,00,0.40
2013,11,17,00,01,0.30
2013,11,17,00,02,0.30
2013,11,17,00,03,0.30
2013,11,17,00,04,0.30
2013,11,17,00,05,0.30
2013,11,17,00,06,0.30
2013,11,17,00,07,0.30
2013,11,17,00,08,0.30
2013,11,17,00,09,0.30
2013,11,17,00,10,0.30
2013,11,17,00,11,0.40
2013,11,17,00,12,0.40
2013,11,17,00,13,0.40
2013,11,17,00,14,0.40
2013,11,17,00,15,0.40
2013,11,17,00,16,0.40
2013,11,17,00,17,0.40
2013,11,17,00,18,0.40
2013,11,17,00,19,0.40
2013,11,17,00,20,0.40
2013,11,17,00,21,0.40
2013,11,17,00,22,0.50
2013,11,17,00,23,0.50
2013,11,17,00,24,0.50
2013,11,17,00,25,0.50
2013,11,17,00,26,0.50
2013,11,17,00,27,0.60
2013,11,17,00,28,0.60
2013,11,17,00,29,0.60
2013,11,17,00,30,0.60
2013,11,17,00,31,0.60
2013,11,17,00,32,0.60
2013,11,17,00,33,0.60
2013,11,17,00,34,0.60
2013,11,17,00,35,0.60
2013,11,17,00,36,0.60
2013,11,17,00,37,0.60
2013,11,17,00,38,0.60
2013,11,17,00,39,0.50
2013,11,17,00,40,0.50
2013,11,17,00,41,0.60
2013,11,17,00,42,0.60
2013,11,17,00,43,0.60
2013,11,17,00,44,0.60
2013,11,17,00,45,0.60
2013,11,17,00,46,0.60
2013,11,17,00,47,0.60
2013,11,17,00,48,0.60
2013,11,17,00,49,0.60
2013,11,17,00,50,0.60
2013,11,17,00,51,0.60
2013,11,17,00,52,0.60
2013,11,17,00,53,0.70
2013,11,17,00,54,0.70
2013,11,17,00,55,0.70
2013,11,17,00,56,0.70
2013,11,17,00,57,0.70
2013,11,17,00,58,0.70
2013,11,17,00,59,0.70
2013,11,17,01,00,0.80
2013,11,17,01,01,0.80
2013,11,17,01,02,0.80
2013,11,17,01,03,0.80
2013,11,17,01,04,0.80
2013,11,17,01,05,0.80
2013,11,17,01,06,0.80
2013,11,17,01,07,0.80
2013,11,17,01,08,0.80
2013,11,17,01,09,0.80
2013,11,17,01,10,0.80
2013,11,17,01,11,0.80
2013,11,17,01,12,0.80
2013,11,17,01,13,0.80
2013,11,17,01,14,0.80
2013,11,17,01,15,0.80
2013,11,17,01,16,0.80
2013,11,17,01,17,0.80
2013,11,17,01,18,0.90
2013,11,17,01,19,0.90
2013,11,17,01,20,0.90
2013,11,17,01,21,0.90
2013,11,17,01,22,0.90
2013,11,17,01,23,0.90
2013,11,17,01,24,0.90
2013,11,17,01,25,0.90
2013,11,17,01,26,0.90
2013,11,17,01,27,0.90
2013,11,17,01,28,0.90
2013,11,17,01,29,0.90
2013,11,17,01,30,0.90
2013,11,17,01,31,0.90
2013,11,17,01,32,0.90
2013,11,17,01,33,0.90
2013,11,17,01,34,0.90
2013,11,17,01,35,0.90
2013,11,17,01,36,0.90
2013,11,17,01,37,0.90
2013,11,17,01,38,0.90
2013,11,17,01,39,0.90
2013,11,17,01,40,0.90
2013,11,17,01,41,0.90
2013,11,17,01,42,1.00
2013,11,17,01,43,1.00
2013,11,17,01,44,1.00
2013,11,17,01,45,1.00
2013,11,17,01,46,1.00
2013,11,17,01,47,1.00
2013,11,17,01,48,1.00
2013,11,17,01,49,1.00
2013,11,17,01,50,1.00
2013,11,17,01,51,1.00
2013,11,17,01,52,1.00
2013,11,17,01,53,1.00
2013,11,17,01,54,1.00
2013,11,17,01,55,1.00
2013,11,17,01,56,1.00
2013,11,17,01,57,1.10
2013,11,17,01,58,1.10
2013,11,17,01,59,1.10
2013,11,17,02,00,1.10
2013,11,17,02,01,1.10
2013,11,17,02,02,1.10
2013,11,17,02,03,1.10
2013,11,17,02,04,1.10
2013,11,17,02,05,1.10
2013,11,17,02,06,1.10
2013,11,17,02,07,1.10
2013,11,17,02,08,1.10
2013,11,17,02,09,1.10
2013,11,17,02,10,1.10
2013,11,17,02,11,1.10
2013,11,17,02,12,1.10
2013,11,17,02,13,1.10
2013,11,17,02,14,1.10
2013,11,17,02,15,1.10
2013,11,17,02,16,1.10
2013,11,17,02,17,1.10
2013,11,17,02,18,1.10
2013,11,17,02,19,1.20
2013,11,17,02,20,1.20
2013,11,17,02,21,1.20
2013,11,17,02,22,1.20
2013,11,17,02,23,1.20
2013,11,17,02,24,1.20
2013,11,17,02,25,1.20
2013,11,17,02,26,1.20
2013,11,17,02,27,1.20
2013,11,17,02,28,1.20
2013,11,17,02,29,1.20
2013,11,17,02,30,1.20
2013,11,17,02,31,1.20
2013,11,17,02,32,1.20
2013,11,17,02,33,1.20
2013,11,17,02,34,1.20
2013,11,17,02,35,1.20
2013,11,17,02,36,1.20
2013,11,17,02,37,1.20
2013,11,17,02,38,1.20
2013,11,17,02,39,1.20
2013,11,17,02,40,1.20
2013,11,17,02,41,1.20
2013,11,17,02,42,1.20
2013,11,17,02,43,1.20
2013,11,17,02,44,1.20
2013,11,17,02,45,1.20
2013,11,17,02,46,1.20
2013,11,17,02,47,1.20
2013,11,17,02,48,1.20
2013,11,17,02,49,1.20
2013,11,17,02,50,1.20
2013,11,17,02,51,1.20
2013,11,17,02,52,1.20
2013,11,17,02,53,1.20
2013,11,17,02,54,1.20
2013,11,17,02,55,1.20
2013,11,17,02,56,1.20
2013,11,17,02,57,1.20
2013,11,17,02,58,1.30
2013,11,17,02,59,1.30
2013,11,17,03,00,1.30
2013,11,17,03,01,1.30
2013,11,17,03,02,1.40
2013,11,17,03,03,1.40
2013,11,17,03,04,1.50
2013,11,17,03,05,1.50
2013,11,17,03,06,1.50
2013,11,17,03,07,1.50
2013,11,17,03,08,1.60
2013,11,17,03,09,1.60
2013,11,17,03,10,1.60
2013,11,17,03,11,1.70
2013,11,17,03,12,1.70
2013,11,17,03,13,1.70
2013,11,17,03,14,1.70
2013,11,17,03,15,1.60
2013,11,17,03,16,1.60
2013,11,17,03,17,1.60
2013,11,17,03,18,1.60
2013,11,17,03,19,1.70
2013,11,17,03,20,1.70
2013,11,17,03,21,1.70
2013,11,17,03,22,1.70
2013,11,17,03,23,1.70
2013,11,17,03,24,1.70
2013,11,17,03,25,1.70
2013,11,17,03,26,1.70
2013,11,17,03,27,1.70
2013,11,17,03,28,1.80
2013,11,17,03,29,1.80
2013,11,17,03,30,1.80
2013,11,17,03,31,1.80
2013,11,17,03,32,1.80
2013,11,17,03,33,1.80
2013,11,17,03,34,1.80
2013,11,17,03,35,1.80
2013,11,17,03,36,1.80
2013,11,17,03,37,1.80
2013,11,17,03,38,1.80
2013,11,17,03,39,1.80
2013,11,17,03,40,1.80
2013,11,17,03,41,1.90
2013,11,17,03,42,1.90
2013,11,17,03,43,1.90
2013,11,17,03,44,2.00
2013,11,17,03,45,2.10
2013,11,17,03,46,2.10
2013,11,17,03,47,2.20
2013,11,17,03,48,2.20
2013,11,17,03,49,2.30
2013,11,17,03,50,2.30
2013,11,17,03,51,2.30
2013,11,17,03,52,2.30
2013,11,17,03,53,2.30
2013,11,17,03,54,2.20
2013,11,17,03,55,2.20
2013,11,17,03,56,2.20
2013,11,17,03,57,2.20
2013,11,17,03,58,2.10
2013,11,17,03,59,2.10
2013,11,17,04,00,2.10
2013,11,17,04,01,2.00
2013,11,17,04,02,2.00
2013,11,17,04,03,2.00
2013,11,17,04,04,2.00
2013,11,17,04,05,2.00
2013,11,17,04,06,1.90
2013,11,17,04,07,1.90
2013,11,17,04,08,1.90
2013,11,17,04,09,1.90
2013,11,17,04,10,1.90
2013,11,17,04,11,1.90
2013,11,17,04,12,1.90
2013,11,17,04,13,1.80
2013,11,17,04,14,1.80
2013,11,17,04,15,1.80
2013,11,17,04,16,1.80
2013,11,17,04,17,1.80
2013,11,17,04,18,1.70
2013,11,17,04,19,1.70
2013,11,17,04,20,1.70
2013,11,17,04,21,1.70
2013,11,17,04,22,1.70
2013,11,17,04,23,1.70
2013,11,17,04,24,1.70
2013,11,17,04,25,1.70
2013,11,17,04,26,1.70
2013,11,17,04,27,1.70
2013,11,17,04,28,1.70
2013,11,17,04,29,1.70
2013,11,17,04,30,1.70
2013,11,17,04,31,1.70
2013,11,17,04,32,1.70
2013,11,17,04,33,1.70
2013,11,17,04,34,1.70
2013,11,17,04,35,1.70
2013,11,17,04,36,1.80
2013,11,17,04,37,1.80
2013,11,17,04,38,1.80
2013,11,17,04,39,1.80
2013,11,17,04,40,1.90
2013,11,17,04,41,1.90
2013,11,17,04,42,1.90
2013,11,17,04,43,1.90
2013,11,17,04,44,1.90
2013,11,17,04,45,1.90
2013,11,17,04,46,1.90
2013,11,17,04,47,1.90
2013,11,17,04,48,1.80
2013,11,17,04,49,1.80
2013,11,17,04,50,1.80
2013,11,17,04,51,1.80
2013,11,17,04,52,1.80
2013,11,17,04,53,1.80
2013,11,17,04,54,1.80
2013,11,17,04,55,1.80
2013,11,17,04,56,1.80
2013,11,17,04,57,1.80
2013,11,17,04,58,1.80
2013,11,17,04,59,1.80
2013,11,17,05,00,1.80
2013,11,17,05,01,1.80
2013,11,17,05,02,1.90
2013,11,17,05,03,1.90
2013,11,17,05,04,2.00
2013,11,17,05,05,2.10
2013,11,17,05,06,2.20
2013,11,17,05,07,2.30
2013,11,17,05,08,2.40
2013,11,17,05,09,2.40
2013,11,17,05,10,2.40
2013,11,17,05,11,2.30
2013,11,17,05,12,2.30
2013,11,17,05,13,2.30
2013,11,17,05,14,2.30
2013,11,17,05,15,2.30
2013,11,17,05,16,2.50
2013,11,17,05,17,2.60
2013,11,17,05,18,2.70
2013,11,17,05,19,2.90
2013,11,17,05,20,3.10
2013,11,17,05,21,3.20
2013,11,17,05,22,3.40
2013,11,17,05,23,3.50
2013,11,17,05,24,3.60
2013,11,17,05,25,3.60
2013,11,17,05,26,3.70
2013,11,17,05,27,3.70
2013,11,17,05,28,3.70
2013,11,17,05,29,3.70
2013,11,17,05,30,3.70
2013,11,17,05,31,3.70
2013,11,17,05,32,3.70
2013,11,17,05,33,3.70
2013,11,17,05,34,3.70
2013,11,17,05,35,3.70
2013,11,17,05,36,3.70
2013,11,17,05,37,3.70
2013,11,17,05,38,3.80
2013,11,17,05,39,3.80
2013,11,17,05,40,3.80
2013,11,17,05,41,3.80
2013,11,17,05,42,3.80
2013,11,17,05,43,3.80
2013,11,17,05,44,3.80
2013,11,17,05,45,3.80
2013,11,17,05,46,3.80
2013,11,17,05,47,3.90
2013,11,17,05,48,3.90
2013,11,17,05,49,3.90
2013,11,17,05,50,3.90
2013,11,17,05,51,3.90
2013,11,17,05,52,3.80
2013,11,17,05,53,3.80
2013,11,17,05,54,3.70
2013,11,17,05,55,3.70
2013,11,17,05,56,3.60
2013,11,17,05,57,3.60
2013,11,17,05,58,3.50
2013,11,17,05,59,3.50
2013,11,17,06,00,3.50
2013,11,17,06,01,3.50
2013,11,17,06,02,3.50
2013,11,17,06,03,3.50
2013,11,17,06,04,3.60
2013,11,17,06,05,3.60
2013,11,17,06,06,3.70
2013,11,17,06,07,3.70
2013,11,17,06,08,3.70
2013,11,17,06,09,3.70
2013,11,17,06,10,3.70
2013,11,17,06,11,3.70
2013,11,17,06,12,3.80
2013,11,17,06,13,3.80
2013,11,17,06,14,3.80
2013,11,17,06,15,3.80
2013,11,17,06,16,3.90
2013,11,17,06,17,3.90
2013,11,17,06,18,3.90
2013,11,17,06,19,3.90
2013,11,17,06,20,3.90
2013,11,17,06,21,3.90
2013,11,17,06,22,4.00
2013,11,17,06,23,4.00
2013,11,17,06,24,4.00
2013,11,17,06,25,4.00
2013,11,17,06,26,4.00
2013,11,17,06,27,3.90
2013,11,17,06,28,4.00
2013,11,17,06,29,4.00
2013,11,17,06,30,4.00
2013,11,17,06,31,4.10
2013,11,17,06,32,4.10
2013,11,17,06,33,4.10
2013,11,17,06,34,4.10
2013,11,17,06,35,4.20
2013,11,17,06,36,4.20
2013,11,17,06,37,4.20
2013,11,17,06,38,4.20
2013,11,17,06,39,4.20
2013,11,17,06,40,4.20
2013,11,17,06,41,4.10
2013,11,17,06,42,4.10
2013,11,17,06,43,4.10
2013,11,17,06,44,4.10
2013,11,17,06,45,4.00
2013,11,17,06,46,3.90
2013,11,17,06,47,3.90
2013,11,17,06,48,3.80
2013,11,17,06,49,3.70
2013,11,17,06,50,3.70
2013,11,17,06,51,3.60
2013,11,17,06,52,3.50
2013,11,17,06,53,3.40
2013,11,17,06,54,3.40
2013,11,17,06,55,3.30
2013,11,17,06,56,3.20
2013,11,17,06,57,3.10
2013,11,17,06,58,3.00
2013,11,17,06,59,2.90
2013,11,17,07,00,2.90
2013,11,17,07,01,2.80
2013,11,17,07,02,2.80
2013,11,17,07,03,2.80
2013,11,17,07,04,2.80
2013,11,17,07,05,2.80
2013,11,17,07,06,2.80
2013,11,17,07,07,2.80
2013,11,17,07,08,2.90
2013,11,17,07,09,2.90
2013,11,17,07,10,3.00
2013,11,17,07,11,3.20
2013,11,17,07,12,3.30
2013,11,17,07,13,3.40
2013,11,17,07,14,3.50
2013,11,17,07,15,3.60
2013,11,17,07,16,3.70
2013,11,17,07,17,3.80
2013,11,17,07,18,3.80
2013,11,17,07,19,3.80
2013,11,17,07,20,3.70
2013,11,17,07,21,3.60
2013,11,17,07,22,3.50
2013,11,17,07,23,3.30
2013,11,17,07,24,3.10
2013,11,17,07,25,3.00
2013,11,17,07,26,2.80
2013,11,17,07,27,2.70
2013,11,17,07,28,2.60
2013,11,17,07,29,2.60
2013,11,17,07,30,2.50
2013,11,17,07,31,2.40
2013,11,17,07,32,2.30
2013,11,17,07,33,2.30
2013,11,17,07,34,2.20
2013,11,17,07,35,2.20
2013,11,17,07,36,2.10
2013,11,17,07,37,2.10
2013,11,17,07,38,2.10
2013,11,17,07,39,2.00
2013,11,17,07,40,2.00
2013,11,17,07,41,2.00
2013,11,17,07,42,1.90
2013,11,17,07,43,1.90
2013,11,17,07,44,2.00
2013,11,17,07,45,2.00
2013,11,17,07,46,2.00
2013,11,17,07,47,2.00
2013,11,17,07,48,2.00
2013,11,17,07,49,2.00
2013,11,17,07,50,1.90
2013,11,17,07,51,1.90
2013,11,17,07,52,1.90
2013,11,17,07,53,1.80
2013,11,17,07,54,1.80
2013,11,17,07,55,1.70
2013,11,17,07,56,1.70
2013,11,17,07,57,1.70
2013,11,17,07,58,1.70
2013,11,17,07,59,1.70
2013,11,17,08,00,1.70
2013,11,17,08,01,1.70
2013,11,17,08,02,1.70
2013,11,17,08,03,1.70
2013,11,17,08,04,1.70
2013,11,17,08,05,1.70
2013,11,17,08,06,1.70
2013,11,17,08,07,1.80
2013,11,17,08,08,1.80
2013,11,17,08,09,1.90
2013,11,17,08,10,1.90
2013,11,17,08,11,2.00
2013,11,17,08,12,2.00
2013,11,17,08,13,2.10
2013,11,17,08,14,2.20
2013,11,17,08,15,2.30
2013,11,17,08,16,2.30
2013,11,17,08,17,2.40
2013,11,17,08,18,2.40
2013,11,17,08,19,2.50
2013,11,17,08,20,2.50
2013,11,17,08,21,2.60
2013,11,17,08,22,2.60
2013,11,17,08,23,2.70
2013,11,17,08,24,2.80
2013,11,17,08,25,2.80
2013,11,17,08,26,2.80
2013,11,17,08,27,2.80
2013,11,17,08,28,2.80
2013,11,17,08,29,2.80
2013,11,17,08,30,2.90
2013,11,17,08,31,2.90
2013,11,17,08,32,2.90
2013,11,17,08,33,2.90
2013,11,17,08,34,3.00
2013,11,17,08,35,3.00
2013,11,17,08,36,3.00
2013,11,17,08,37,3.00
2013,11,17,08,38,3.00
2013,11,17,08,39,3.00
2013,11,17,08,40,3.10
2013,11,17,08,41,3.10
2013,11,17,08,42,3.10
2013,11,17,08,43,3.10
2013,11,17,08,44,3.10
2013,11,17,08,45,3.20
2013,11,17,08,46,3.20
2013,11,17,08,47,3.20
2013,11,17,08,48,3.20
2013,11,17,08,49,3.20
2013,11,17,08,50,3.20
2013,11,17,08,51,3.20
2013,11,17,08,52,3.20
2013,11,17,08,53,3.20
2013,11,17,08,54,3.20
2013,11,17,08,55,3.30
2013,11,17,08,56,3.30
2013,11,17,08,57,3.30
2013,11,17,08,58,3.30
2013,11,17,08,59,3.30
2013,11,17,09,00,3.30
2013,11,17,09,01,3.30
2013,11,17,09,02,3.30
2013,11,17,09,03,3.30
2013,11,17,09,04,3.30
2013,11,17,09,05,3.30
2013,11,17,09,06,3.30
2013,11,17,09,07,3.30
2013,11,17,09,08,3.40
2013,11,17,09,09,3.40
2013,11,17,09,10,3.40
2013,11,17,09,11,3.40
2013,11,17,09,12,3.40
2013,11,17,09,13,3.50
2013,11,17,09,14,3.50
2013,11,17,09,15,3.50
2013,11,17,09,16,3.50
2013,11,17,09,17,3.60
2013,11,17,09,18,3.60
2013,11,17,09,19,3.60
2013,11,17,09,20,3.60
2013,11,17,09,21,3.70
2013,11,17,09,22,3.70
2013,11,17,09,23,3.80
2013,11,17,09,24,3.80
2013,11,17,09,25,3.90
2013,11,17,09,26,3.90
2013,11,17,09,27,3.90
2013,11,17,09,28,4.00
2013,11,17,09,29,4.10
2013,11,17,09,30,4.10
2013,11,17,09,31,4.20
2013,11,17,09,32,4.20
2013,11,17,09,33,4.30
2013,11,17,09,34,4.40
2013,11,17,09,35,4.40
2013,11,17,09,36,4.50
2013,11,17,09,37,4.50
2013,11,17,09,38,4.60
2013,11,17,09,39,4.60
2013,11,17,09,40,4.70
2013,11,17,09,41,4.70
2013,11,17,09,42,4.80
2013,11,17,09,43,4.80
2013,11,17,09,44,4.80
2013,11,17,09,45,4.80
2013,11,17,09,46,4.80
2013,11,17,09,47,4.80
2013,11,17,09,48,4.80
2013,11,17,09,49,4.90
2013,11,17,09,50,4.90
2013,11,17,09,51,4.90
2013,11,17,09,52,4.90
2013,11,17,09,53,4.90
2013,11,17,09,54,4.90
2013,11,17,09,55,5.00
2013,11,17,09,56,5.00
2013,11,17,09,57,5.00
2013,11,17,09,58,5.00
2013,11,17,09,59,5.00
2013,11,17,10,00,5.00
2013,11,17,10,01,5.00
2013,11,17,10,02,5.00
2013,11,17,10,03,5.00
2013,11,17,10,04,5.00
2013,11,17,10,05,5.00
2013,11,17,10,06,5.10
2013,11,17,10,07,5.10
2013,11,17,10,08,5.10
2013,11,17,10,09,5.20
2013,11,17,10,10,5.20
2013,11,17,10,11,5.30
2013,11,17,10,12,5.30
2013,11,17,10,13,5.40
2013,11,17,10,14,5.40
2013,11,17,10,15,5.50
2013,11,17,10,16,5.60
2013,11,17,10,17,5.70
2013,11,17,10,18,5.70
2013,11,17,10,19,5.80
2013,11,17,10,20,5.90
2013,11,17,10,21,6.00
2013,11,17,10,22,6.00
2013,11,17,10,23,6.10
2013,11,17,10,24,6.20
2013,11,17,10,25,6.20
2013,11,17,10,26,6.30
2013,11,17,10,27,6.30
2013,11,17,10,28,6.40
2013,11,17,10,29,6.40
2013,11,17,10,30,6.40
2013,11,17,10,31,6.50
2013,11,17,10,32,6.50
2013,11,17,10,33,6.50
2013,11,17,10,34,6.50
2013,11,17,10,35,6.60
2013,11,17,10,36,6.60
2013,11,17,10,37,6.60
2013,11,17,10,38,6.60
2013,11,17,10,39,6.70
2013,11,17,10,40,6.70
2013,11,17,10,41,6.70
2013,11,17,10,42,6.80
2013,11,17,10,43,6.80
2013,11,17,10,44,6.80
2013,11,17,10,45,6.90
2013,11,17,10,46,7.00
2013,11,17,10,47,7.00
2013,11,17,10,48,7.10
2013,11,17,10,49,7.20
2013,11,17,10,50,7.30
2013,11,17,10,51,7.40
2013,11,17,10,52,7.40
2013,11,17,10,53,7.50
2013,11,17,10,54,7.60
2013,11,17,10,55,7.70
2013,11,17,10,56,7.80
2013,11,17,10,57,7.80
2013,11,17,10,58,7.90
2013,11,17,10,59,8.00
2013,11,17,11,00,8.00
2013,11,17,11,01,8.10
2013,11,17,11,02,8.20
2013,11,17,11,03,8.20
2013,11,17,11,04,8.30
2013,11,17,11,05,8.30
2013,11,17,11,06,8.40
2013,11,17,11,07,8.40
2013,11,17,11,08,8.50
2013,11,17,11,09,8.60
2013,11,17,11,10,8.60
2013,11,17,11,11,8.70
2013,11,17,11,12,8.70
2013,11,17,11,13,8.80
2013,11,17,11,14,8.80
2013,11,17,11,15,8.80
2013,11,17,11,16,8.80
2013,11,17,11,17,8.80
2013,11,17,11,18,8.80
2013,11,17,11,19,8.80
2013,11,17,11,20,8.70
2013,11,17,11,21,8.70
2013,11,17,11,22,8.50
2013,11,17,11,23,8.40
2013,11,17,11,24,8.30
2013,11,17,11,25,8.10
2013,11,17,11,26,8.00
2013,11,17,11,27,8.00
2013,11,17,11,28,7.90
2013,11,17,11,29,7.90
2013,11,17,11,30,7.80
2013,11,17,11,31,7.70
2013,11,17,11,32,7.70
2013,11,17,11,33,7.70
2013,11,17,11,34,7.70
2013,11,17,11,35,7.60
2013,11,17,11,36,7.60
2013,11,17,11,37,7.60
2013,11,17,11,38,7.60
2013,11,17,11,39,7.60
2013,11,17,11,40,7.60
2013,11,17,11,41,7.60
2013,11,17,11,42,7.60
2013,11,17,11,43,7.60
2013,11,17,11,44,7.60
2013,11,17,11,45,7.60
2013,11,17,11,46,7.70
2013,11,17,11,47,7.70
2013,11,17,11,48,7.70
2013,11,17,11,49,7.80
2013,11,17,11,50,7.80
2013,11,17,11,51,7.90
2013,11,17,11,52,7.90
2013,11,17,11,53,7.90
2013,11,17,11,54,7.90
2013,11,17,11,55,7.90
2013,11,17,11,56,7.90
2013,11,17,11,57,7.90
2013,11,17,11,58,8.00
2013,11,17,11,59,8.00
2013,11,17,12,00,8.00
2013,11,17,12,01,8.10
2013,11,17,12,02,8.10
2013,11,17,12,03,8.20
2013,11,17,12,04,8.20
2013,11,17,12,05,8.30
2013,11,17,12,06,8.30
2013,11,17,12,07,8.30
2013,11,17,12,08,8.30
2013,11,17,12,09,8.30
2013,11,17,12,10,8.20
2013,11,17,12,11,8.10
2013,11,17,12,12,8.10
2013,11,17,12,13,8.00
2013,11,17,12,14,8.00
2013,11,17,12,15,7.90
2013,11,17,12,16,7.90
2013,11,17,12,17,7.90
2013,11,17,12,18,7.90
2013,11,17,12,19,7.90
2013,11,17,12,20,7.80
2013,11,17,12,21,7.80
2013,11,17,12,22,7.80
2013,11,17,12,23,7.80
2013,11,17,12,24,7.80
2013,11,17,12,25,7.80
2013,11,17,12,26,7.80
2013,11,17,12,27,7.80
2013,11,17,12,28,7.90
2013,11,17,12,29,7.90
2013,11,17,12,30,7.90
2013,11,17,12,31,7.90
2013,11,17,12,32,7.90
2013,11,17,12,33,8.00
2013,11,17,12,34,8.00
2013,11,17,12,35,7.90
2013,11,17,12,36,7.90
2013,11,17,12,37,7.90
2013,11,17,12,38,7.80
2013,11,17,12,39,7.80
2013,11,17,12,40,7.80
2013,11,17,12,41,7.80
2013,11,17,12,42,7.80
2013,11,17,12,43,7.80
2013,11,17,12,44,7.80
2013,11,17,12,45,7.80
2013,11,17,12,46,7.80
2013,11,17,12,47,7.80
2013,11,17,12,48,7.80
2013,11,17,12,49,7.80
2013,11,17,12,50,7.80
2013,11,17,12,51,7.80
2013,11,17,12,52,7.80
2013,11,17,12,53,7.70
2013,11,17,12,54,7.70
2013,11,17,12,55,7.70
2013,11,17,12,56,7.70
2013,11,17,12,57,7.70
2013,11,17,12,58,7.70
2013,11,17,12,59,7.70
2013,11,17,13,00,7.60
2013,11,17,13,01,7.60
2013,11,17,13,02,7.60
2013,11,17,13,03,7.60
2013,11,17,13,04,7.60
2013,11,17,13,05,7.60
2013,11,17,13,06,7.60
2013,11,17,13,07,7.70
2013,11,17,13,08,7.70
2013,11,17,13,09,7.70
2013,11,17,13,10,7.70
2013,11,17,13,11,7.70
2013,11,17,13,12,7.70
2013,11,17,13,13,7.70
2013,11,17,13,14,7.70
2013,11,17,13,15,7.70
2013,11,17,13,16,7.70
2013,11,17,13,17,7.70
2013,11,17,13,18,7.70
2013,11,17,13,19,7.70
2013,11,17,13,20,7.70
2013,11,17,13,21,7.70
2013,11,17,13,22,7.70
2013,11,17,13,23,7.70
2013,11,17,13,24,7.70
2013,11,17,13,25,7.70
2013,11,17,13,26,7.70
2013,11,17,13,27,7.80
2013,11,17,13,28,7.80
2013,11,17,13,29,7.80
2013,11,17,13,30,7.80
2013,11,17,13,31,7.80
2013,11,17,13,32,7.90
2013,11,17,13,33,7.90
2013,11,17,13,34,7.90
2013,11,17,13,35,7.90
2013,11,17,13,36,7.90
2013,11,17,13,37,8.00
2013,11,17,13,38,8.00
2013,11,17,13,39,8.00
2013,11,17,13,40,8.10
2013,11,17,13,41,8.10
2013,11,17,13,42,8.10
2013,11,17,13,43,8.10
2013,11,17,13,44,8.20
2013,11,17,13,45,8.20
2013,11,17,13,46,8.20
2013,11,17,13,47,8.20
2013,11,17,13,48,8.30
2013,11,17,13,49,8.30
2013,11,17,13,50,8.30
2013,11,17,13,51,8.40
2013,11,17,13,52,8.40
2013,11,17,13,53,8.40
2013,11,17,13,54,8.40
2013,11,17,13,55,8.40
2013,11,17,13,56,8.40
2013,11,17,13,57,8.50
2013,11,17,13,58,8.50
2013,11,17,13,59,8.60
2013,11,17,14,00,8.60
2013,11,17,14,01,8.60
2013,11,17,14,02,8.60
2013,11,17,14,03,8.50
2013,11,17,14,04,8.50
2013,11,17,14,05,8.50
2013,11,17,14,06,8.50
2013,11,17,14,07,8.50
2013,11,17,14,08,8.40
2013,11,17,14,09,8.50
2013,11,17,14,10,8.50
2013,11,17,14,11,8.50
2013,11,17,14,12,8.60
2013,11,17,14,13,8.60
2013,11,17,14,14,8.70
2013,11,17,14,15,8.70
2013,11,17,14,16,8.70
2013,11,17,14,17,8.80
2013,11,17,14,18,8.80
2013,11,17,14,19,8.80
2013,11,17,14,20,8.80
2013,11,17,14,21,8.80
2013,11,17,14,22,8.80
2013,11,17,14,23,8.80
2013,11,17,14,24,8.80
2013,11,17,14,25,8.80
2013,11,17,14,26,8.90
2013,11,17,14,27,8.90
2013,11,17,14,28,8.90
2013,11,17,14,29,8.90
2013,11,17,14,30,9.00
2013,11,17,14,31,9.00
2013,11,17,14,32,9.10
2013,11,17,14,33,9.10
2013,11,17,14,34,9.20
2013,11,17,14,35,9.20
2013,11,17,14,36,9.20
2013,11,17,14,37,9.30
2013,11,17,14,38,9.30
2013,11,17,14,39,9.30
2013,11,17,14,40,9.40
2013,11,17,14,41,9.40
2013,11,17,14,42,9.40
2013,11,17,14,43,9.40
2013,11,17,14,44,9.40
2013,11,17,14,45,9.40
2013,11,17,14,46,9.30
2013,11,17,14,47,9.30
2013,11,17,14,48,9.30
2013,11,17,14,49,9.20
2013,11,17,14,50,9.20
2013,11,17,14,51,9.20
2013,11,17,14,52,9.20
2013,11,17,14,53,9.20
2013,11,17,14,54,9.20
2013,11,17,14,55,9.20
2013,11,17,14,56,9.20
2013,11,17,14,57,9.20
2013,11,17,14,58,9.20
2013,11,17,14,59,9.20
2013,11,17,15,00,9.10
2013,11,17,15,01,9.10
2013,11,17,15,02,9.10
2013,11,17,15,03,9.10
2013,11,17,15,04,9.10
2013,11,17,15,05,9.10
2013,11,17,15,06,9.10
2013,11,17,15,07,9.20
2013,11,17,15,08,9.20
2013,11,17,15,09,9.20
2013,11,17,15,10,9.20
2013,11,17,15,11,9.20
2013,11,17,15,12,9.10
2013,11,17,15,13,9.10
2013,11,17,15,14,9.10
2013,11,17,15,15,9.00
2013,11,17,15,16,9.00
2013,11,17,15,17,8.90
2013,11,17,15,18,8.90
2013,11,17,15,19,8.90
2013,11,17,15,20,8.90
2013,11,17,15,21,8.90
2013,11,17,15,22,8.80
2013,11,17,15,23,8.80
2013,11,17,15,24,8.80
2013,11,17,15,25,8.80
2013,11,17,15,26,8.80
2013,11,17,15,27,8.80
2013,11,17,15,28,8.70
2013,11,17,15,29,8.70
2013,11,17,15,30,8.70
2013,11,17,15,31,8.70
2013,11,17,15,32,8.70
2013,11,17,15,33,8.70
2013,11,17,15,34,8.70
2013,11,17,15,35,8.70
2013,11,17,15,36,8.70
2013,11,17,15,37,8.80
2013,11,17,15,38,8.80
2013,11,17,15,39,8.80
2013,11,17,15,40,8.80
2013,11,17,15,41,8.80
2013,11,17,15,42,8.80
2013,11,17,15,43,8.80
2013,11,17,15,44,8.80
2013,11,17,15,45,8.80
2013,11,17,15,46,8.80
2013,11,17,15,47,8.80
2013,11,17,15,48,8.80
2013,11,17,15,49,8.80
2013,11,17,15,50,8.80
2013,11,17,15,51,8.80
2013,11,17,15,52,8.80
2013,11,17,15,53,8.80
2013,11,17,15,54,8.80
2013,11,17,15,55,8.80
2013,11,17,15,56,8.80
2013,11,17,15,57,8.80
2013,11,17,15,58,8.80
2013,11,17,15,59,8.80
2013,11,17,16,00,8.80
2013,11,17,16,01,8.80
2013,11,17,16,02,8.90
2013,11,17,16,03,8.90
2013,11,17,16,04,8.90
2013,11,17,16,05,8.80
2013,11,17,16,06,8.80
2013,11,17,16,07,8.80
2013,11,17,16,08,8.80
2013,11,17,16,09,8.80
2013,11,17,16,10,8.80
2013,11,17,16,11,8.80
2013,11,17,16,12,8.80
2013,11,17,16,13,8.80
2013,11,17,16,14,8.80
2013,11,17,16,15,8.80
2013,11,17,16,16,8.70
2013,11,17,16,17,8.70
2013,11,17,16,18,8.70
2013,11,17,16,19,8.70
2013,11,17,16,20,8.70
2013,11,17,16,21,8.60
2013,11,17,16,22,8.60
2013,11,17,16,23,8.60
2013,11,17,16,24,8.50
2013,11,17,16,25,8.50
2013,11,17,16,26,8.50
2013,11,17,16,27,8.40
2013,11,17,16,28,8.40
2013,11,17,16,29,8.40
2013,11,17,16,30,8.30
2013,11,17,16,31,8.30
2013,11,17,16,32,8.30
2013,11,17,16,33,8.20
2013,11,17,16,34,8.20
2013,11,17,16,35,8.20
2013,11,17,16,36,8.20
2013,11,17,16,37,8.10
2013,11,17,16,38,8.10
2013,11,17,16,39,8.10
2013,11,17,16,40,8.10
2013,11,17,16,41,8.10
2013,11,17,16,42,8.10
2013,11,17,16,43,8.10
2013,11,17,16,44,8.00
2013,11,17,16,45,8.00
2013,11,17,16,46,8.00
2013,11,17,16,47,8.00
2013,11,17,16,48,8.00
2013,11,17,16,49,8.00
2013,11,17,16,50,7.90
2013,11,17,16,51,7.90
2013,11,17,16,52,7.90
2013,11,17,16,53,7.90
2013,11,17,16,54,7.90
2013,11,17,16,55,7.80
2013,11,17,16,56,7.80
2013,11,17,16,57,7.80
2013,11,17,16,58,7.80
2013,11,17,16,59,7.80
2013,11,17,17,00,7.80
2013,11,17,17,01,7.80
2013,11,17,17,02,7.70
2013,11,17,17,03,7.70
2013,11,17,17,04,7.70
2013,11,17,17,05,7.70
2013,11,17,17,06,7.70
2013,11,17,17,07,7.70
2013,11,17,17,08,7.70
2013,11,17,17,09,7.70
2013,11,17,17,10,7.60
2013,11,17,17,11,7.60
2013,11,17,17,12,7.60
2013,11,17,17,13,7.60
2013,11,17,17,14,7.60
2013,11,17,17,15,7.60
2013,11,17,17,16,7.50
2013,11,17,17,17,7.50
2013,11,17,17,18,7.50
2013,11,17,17,19,7.60
2013,11,17,17,20,7.60
2013,11,17,17,21,7.50
2013,11,17,17,22,7.60
2013,11,17,17,23,7.50
2013,11,17,17,24,7.50
2013,11,17,17,25,7.40
2013,11,17,17,26,7.40
2013,11,17,17,27,7.30
2013,11,17,17,28,7.30
2013,11,17,17,29,7.30
2013,11,17,17,30,7.20
2013,11,17,17,31,7.20
2013,11,17,17,32,7.20
2013,11,17,17,33,7.10
2013,11,17,17,34,7.10
2013,11,17,17,35,7.10
2013,11,17,17,36,7.10
2013,11,17,17,37,7.10
2013,11,17,17,38,7.10
2013,11,17,17,39,7.10
2013,11,17,17,40,7.10
2013,11,17,17,41,7.10
2013,11,17,17,42,7.10
2013,11,17,17,43,7.10
2013,11,17,17,44,7.10
2013,11,17,17,45,7.10
2013,11,17,17,46,7.10
2013,11,17,17,47,7.10
2013,11,17,17,48,7.10
2013,11,17,17,49,7.10
2013,11,17,17,50,7.10
2013,11,17,17,51,7.10
2013,11,17,17,52,7.20
2013,11,17,17,53,7.20
2013,11,17,17,54,7.20
2013,11,17,17,55,7.20
2013,11,17,17,56,7.20
2013,11,17,17,57,7.20
2013,11,17,17,58,7.20
2013,11,17,17,59,7.20
2013,11,17,18,00,7.10
2013,11,17,18,01,7.10
2013,11,17,18,02,7.10
2013,11,17,18,03,7.10
2013,11,17,18,04,7.10
2013,11,17,18,05,7.10
2013,11,17,18,06,7.10